DW3921 Weather Reports


Display with metric or nautical units.
time (UTC)temp
F
wind
direction
speed
MPH
gust
MPH
rain 1hr
in
rain 24hr
in
rain mn
in
humidity
%
barometer
mb
20260505035006 65 27 2.0 3.0 0.00 0.00 0.00 74 1025.1
20260505034006 66 37 1.0 6.0 0.00 0.00 0.00 73 1025.1
20260505033006 67 56 2.0 6.0 0.00 0.00 0.00 72 1024.9
20260505032006 67 67 1.0 3.0 0.00 0.00 0.00 70 1024.9
20260505031006 67 0 0.0 3.0 0.00 0.00 0.00 70 1024.9
20260505025006 66 39 2.0 6.0 0.00 0.00 0.00 72 1024.7
20260505024006 66 0 0.0 7.0 0.00 0.00 0.00 73 1025.0
20260505022006 65 28 3.0 6.0 0.00 0.00 0.00 74 1024.8
20260505021005 66 185 1.0 6.0 0.00 0.00 0.00 75 1025.2
20260505015006 66 131 1.0 3.0 0.00 0.00 0.00 72 1025.6
20260505014008 67 0 0.0 3.0 0.00 0.00 0.00 72 1025.8
20260505013006 67 0 0.0 3.0 0.00 0.00 0.00 73 1026.0
20260505012006 66 113 1.0 6.0 0.00 0.00 0.00 73 1026.0
20260505011006 66 182 2.0 7.0 0.00 0.00 0.00 74 1026.5
20260505005006 64 156 1.0 6.0 0.00 0.00 0.00 76 1026.9
20260505004006 62 141 2.0 7.0 0.00 0.00 0.00 78 1027.2
20260505003007 63 0 0.0 7.0 0.00 0.00 0.00 77 1027.1
20260505002006 65 66 3.0 7.0 0.00 0.00 0.00 74 1027.1
20260505000006 65 31 2.0 7.0 0.00 0.00 0.00 68 1027.7
20260504235006 64 0 0.0 3.0 0.00 0.00 0.00 70 1027.9
20260504234006 64 3 1.0 7.0 0.00 0.00 0.00 71 1028.2
20260504233010 63 0 0.0 6.0 0.00 0.00 0.00 71 1028.4
20260504232005 62 27 2.0 6.0 0.00 0.00 0.00 75 1028.9
20260504231005 62 26 1.0 6.0 0.00 0.00 0.00 76 1029.3
20260504230006 60 25 1.0 6.0 0.00 0.00 0.00 79 1029.5
20260504225005 58 30 2.0 7.0 0.00 0.00 0.00 81 1029.8
20260504223006 57 27 1.0 6.0 0.00 0.00 0.00 83 1030.2
20260504221006 53 35 3.0 7.0 0.00 0.00 0.00 88 1030.8
20260504220006 52 32 2.0 9.0 0.00 0.00 0.00 92 1031.4
20260504215006 50 18 2.0 9.0 0.00 0.00 0.00 94 1031.8
20260504214006 49 28 4.0 9.0 0.00 0.00 0.00 96 1032.2
20260504213007 48 23 3.0 7.0 0.00 0.00 0.00 99 1033.3
20260504211005 45 25 1.0 6.0 0.00 0.00 0.00 99 1034.1
20260504210007 46 31 2.0 7.0 0.00 0.00 0.00 99 1034.6
20260504205005 45 19 2.0 7.0 0.00 0.00 0.00 99 1035.3
20260504204006 44 32 3.0 9.0 0.00 0.00 0.00 99 1035.8
20260504203007 43 29 3.0 7.0 0.00 0.00 0.00 99 1036.2
20260504202006 42 30 3.0 7.0 0.00 0.00 0.00 99 1036.3
20260504201006 42 44 3.0 6.0 0.00 0.00 0.00 99 1036.4
20260504200006 41 38 1.0 6.0 0.00 0.00 0.00 99 1036.0
20260504194006 40 43 2.0 6.0 0.00 0.00 0.00 99 1035.8
20260504192005 39 33 1.0 6.0 0.00 0.00 0.00 99 1035.7
20260504191006 39 0 0.0 3.0 0.00 0.00 0.00 99 1035.2
20260504190006 39 40 2.0 3.0 0.00 0.00 0.00 99 1035.3
20260504185007 39 36 1.0 6.0 0.00 0.00 0.00 99 1035.1
20260504184007 39 24 1.0 6.0 0.00 0.00 0.00 99 1035.0
20260504183006 40 28 1.0 6.0 0.00 0.00 0.00 99 1035.1
20260504182006 40 25 1.0 3.0 0.00 0.00 0.00 99 1035.6
20260504181005 40 31 1.0 6.0 0.00 0.00 0.00 99 1035.6
20260504180007 40 28 1.0 6.0 0.00 0.00 0.00 99 1036.3
20260504175005 40 43 2.0 3.0 0.00 0.00 0.00 99 1036.8
20260504174006 40 30 1.0 6.0 0.00 0.00 0.00 99 1036.7
20260504173007 40 38 2.0 3.0 0.00 0.00 0.00 99 1037.0
20260504172006 40 0 0.0 6.0 0.00 0.00 0.00 99 1036.7
20260504171005 40 21 1.0 6.0 0.00 0.00 0.00 99 1036.6
20260504141006 43 34 1.0 6.0 0.00 0.00 0.00 99 1033.2
20260504082006 47 0 0.0 0.0 0.00 0.00 0.00 98 1030.4
20260504081006 47 0 0.0 0.0 0.00 0.00 0.00 98 1030.5
20260504050006 56 0 0.0 2.0 0.00 0.00 0.00 90 1028.7
20260504045006 57 0 0.0 3.0 0.00 0.00 0.00 88 1028.9
20260504044006 58 181 1.0 3.0 0.00 0.00 0.00 87 1029.1
20260504043006 58 167 2.0 3.0 0.00 0.00 0.00 86 1029.1
20260504042006 59 161 1.0 3.0 0.00 0.00 0.00 85 1029.4
20260504040008 59 0 0.0 7.0 0.00 0.00 0.00 84 1029.3